Weather History for Vancouver, BC

Change the Weather History Date:

Sunday, March 17, 2013

  Actual Average Record
Temperature  
Mean Temperature 44 °F -  
Max Temperature 47 °F 47 °F 51 °F (2003)
Min Temperature 40 °F 37 °F 24 °F (2002)
Degree Days  
Heating Degree Days 22    
Moisture  
Dew Point 33 °F    
Average Humidity 66    
Maximum Humidity 81    
Minimum Humidity 44    
Precipitation  
Precipitation 0.00 in - - ()
Sea Level Pressure  
Sea Level Pressure 30.07 in    
Wind  
Wind Speed 17 mph ()    
Max Wind Speed 29 mph    
Max Gust Speed 34 mph    
Visibility 18.3 miles    
Events      
Averages and records for this station are not official NWS values.
T = Trace of Precipitation, MM = Missing Value Source: Averaged Metar Reports

Daily Weather History Graph

Daily Weather History Graph

Search for Another Location

Airport:

Trip Planner

Search our weather history database for the weather conditions in past years. The results will help you decide how hot, cold, wet, or windy it might be!

Date:

Astronomy

Mar. 17, 2013 Rise Set
Actual Time 7:21 AM PDT 7:21 PM PDT
Civil Twilight 6:49 AM PDT 7:53 PM PDT
Nautical Twilight 6:12 AM PDT 8:30 PM PDT
Astronomical Twilight 5:34 AM PDT 9:08 PM PDT
Moon 10:08 AM PDT (3/17) 1:02 AM PDT (3/17)
Length of Visible Light 13h 03m
Length of Day
12h 00m
Waxing Crescent, 32% of the Moon is Illuminated
Mar 17
Waxing Crescent
Mar 19
First Quarter
Mar 27
Full
Apr 2
Last Quarter
Apr 10
New

Hourly Weather History & Observations

Time (PDT) Temp. Windchill Dew Point Humidity Pressure Visibility Wind Dir Wind Speed Gust Speed Precip Events Conditions
12:00 AM 41.0 °F 31.6 °F 35.6 °F 81% 29.91 in 15.0 mi WNW 20.7 mph - N/A   Mostly Cloudy
1:00 AM 41.0 °F 31.6 °F 33.8 °F 76% 29.93 in 15.0 mi WNW 20.7 mph 27.6 mph N/A   Mostly Cloudy
2:00 AM 41.0 °F 31.9 °F 33.8 °F 76% 29.95 in 15.0 mi WNW 19.6 mph 27.6 mph N/A   Mostly Cloudy
3:00 AM 41.0 °F 30.5 °F 33.8 °F 76% 29.96 in 15.0 mi West 26.5 mph 34.5 mph N/A   Scattered Clouds
4:00 AM 41.0 °F 30.0 °F 32.0 °F 70% 29.98 in 15.0 mi West 28.8 mph 34.5 mph N/A   Scattered Clouds
5:00 AM 41 °F - 33 °F 66% 30.00 in 15 mi West 28.8 mph - -   Partly Cloudy
5:00 AM 41.0 °F 30.0 °F 33.8 °F 76% 30.00 in 15.0 mi West 28.8 mph 34.5 mph N/A   Scattered Clouds
6:00 AM 41.0 °F 30.7 °F 33.8 °F 76% 30.02 in 15.0 mi West 25.3 mph 32.2 mph N/A   Scattered Clouds
7:00 AM 41.0 °F 31.1 °F 32.0 °F 70% 30.04 in 15.0 mi West 23.0 mph 32.2 mph N/A   Partly Cloudy
8:00 AM 41.0 °F 32.5 °F 32.0 °F 70% 30.07 in 20.0 mi WNW 17.3 mph 32.2 mph N/A   Partly Cloudy
9:00 AM 42.8 °F 34.5 °F 33.8 °F 70% 30.10 in 20.0 mi WNW 18.4 mph 27.6 mph N/A   Scattered Clouds
10:00 AM 44.6 °F 36.9 °F 33.8 °F 66% 30.12 in 20.0 mi West 18.4 mph 25.3 mph N/A   Scattered Clouds
11:00 AM 44 °F - 36 °F 64% 30.12 in 19 mi West 18.4 mph - -   Scattered Clouds
11:00 AM 44.6 °F 36.6 °F 35.6 °F 71% 30.12 in 20.0 mi West 19.6 mph - N/A   Partly Cloudy
12:00 PM 44.6 °F 37.4 °F 35.6 °F 71% 30.13 in 20.0 mi West 16.1 mph - N/A   Partly Cloudy
1:00 PM 46.4 °F 40.7 °F 33.8 °F 62% 30.14 in 20.0 mi West 12.7 mph - N/A   Scattered Clouds
2:00 PM 46.4 °F 40.7 °F 30.2 °F 53% 30.14 in 20.0 mi SW 12.7 mph - N/A   Scattered Clouds
3:00 PM 46.4 °F 41.9 °F 32.0 °F 57% 30.14 in 20.0 mi West 9.2 mph - N/A   Mostly Cloudy
4:00 PM 46.4 °F 42.4 °F 30.2 °F 53% 30.14 in 20.0 mi WSW 8.1 mph - N/A   Mostly Cloudy
5:00 PM 46 °F - 31 °F 44% 30.13 in 19 mi West 6.9 mph - -   Partly Cloudy
5:00 PM 46.4 °F 43.5 °F 32.0 °F 57% 30.13 in 20.0 mi WSW 5.8 mph - N/A   Mostly Cloudy
6:00 PM 44.6 °F 39.2 °F 32.0 °F 61% 30.12 in 20.0 mi West 10.4 mph - N/A   Mostly Cloudy
7:00 PM 44.6 °F 43.1 °F 32.0 °F 61% 30.10 in 20.0 mi SW 3.5 mph - N/A   Mostly Cloudy
8:00 PM 42.8 °F 38.0 °F 32.0 °F 66% 30.10 in 20.0 mi SSW 8.1 mph - N/A   Mostly Cloudy
9:00 PM 44.6 °F 38.1 °F 32.0 °F 61% 30.11 in 20.0 mi WSW 13.8 mph - N/A   Mostly Cloudy
10:00 PM 42.8 °F 36.6 °F 32.0 °F 66% 30.11 in 20.0 mi SW 11.5 mph - N/A   Mostly Cloudy
11:00 PM 43 °F - 32 °F 53% 30.10 in 19 mi SW 12.7 mph - -   Scattered Clouds
11:00 PM 42.8 °F 36.2 °F 32.0 °F 66% 30.10 in 20.0 mi SW 12.7 mph 19.6 mph N/A   Mostly Cloudy